Time,TemperatureF,DewpointF,PressureIn,WindDirection,WindDirectionDegrees,WindSpeedMPH,WindSpeedGustMPH,Humidity,HourlyPrecipIn,Conditions,Clouds,dailyrainin,SolarRadiationWatts/m^2,SoftwareType,DateUTC
2013-02-25 00:00:00,30.7,29.4,29.88,North,5,3.0,8.0,95,0.00,,,0.01,0,HR-IXPWINDi_r2_v1.2.,2013-02-25 05:00:00,
2013-02-25 00:05:00,30.7,29.2,29.89,NNW,338,5.0,8.0,94,0.00,,,0.01,0,HR-IXPWINDi_r2_v1.2.,2013-02-25 05:05:00,
2013-02-25 00:10:00,30.6,29.1,29.89,North,360,3.0,10.0,94,0.00,,,0.01,0,HR-IXPWINDi_r2_v1.2.,2013-02-25 05:10:00,
2013-02-25 00:15:00,30.6,29.1,29.89,North,350,5.0,10.0,94,0.00,,,0.01,0,HR-IXPWINDi_r2_v1.2.,2013-02-25 05:15:00,
2013-02-25 00:20:00,30.6,29.1,29.89,NNW,342,7.0,8.0,94,0.00,,,0.01,0,HR-IXPWINDi_r2_v1.2.,2013-02-25 05:20:00,
2013-02-25 00:25:00,30.6,29.1,29.89,North,350,3.0,8.0,94,0.00,,,0.01,0,HR-IXPWINDi_r2_v1.2.,2013-02-25 05:25:00,
2013-02-25 00:30:00,30.6,29.1,29.89,North,5,5.0,9.0,94,0.00,,,0.01,0,HR-IXPWINDi_r2_v1.2.,2013-02-25 05:30:00,
2013-02-25 00:36:00,30.6,29.1,29.90,NNE,13,3.0,9.0,94,0.00,,,0.01,0,HR-IXPWINDi_r2_v1.2.,2013-02-25 05:36:00,
2013-02-25 00:41:00,30.6,29.1,29.90,NNW,346,6.0,8.0,94,0.00,,,0.01,0,HR-IXPWINDi_r2_v1.2.,2013-02-25 05:41:00,
2013-02-25 00:46:00,30.6,29.1,29.90,North,355,6.0,8.0,94,0.00,,,0.01,0,HR-IXPWINDi_r2_v1.2.,2013-02-25 05:46:00,
2013-02-25 00:51:00,30.6,29.1,29.90,NNE,30,4.0,7.0,94,0.00,,,0.01,0,HR-IXPWINDi_r2_v1.2.,2013-02-25 05:51:00,
2013-02-25 00:56:00,30.5,29.0,29.90,NNW,342,4.0,8.0,94,0.00,,,0.01,0,HR-IXPWINDi_r2_v1.2.,2013-02-25 05:56:00,
2013-02-25 01:01:00,30.5,29.0,29.90,NNE,17,4.0,9.0,94,0.00,,,0.01,0,HR-IXPWINDi_r2_v1.2.,2013-02-25 06:01:00,
2013-02-25 01:06:00,30.5,29.0,29.91,NE,34,4.0,9.0,94,0.00,,,0.01,0,HR-IXPWINDi_r2_v1.2.,2013-02-25 06:06:00,
2013-02-25 01:12:00,30.5,29.0,29.91,North,350,2.0,9.0,94,0.00,,,0.01,0,HR-IXPWINDi_r2_v1.2.,2013-02-25 06:12:00,
2013-02-25 01:17:00,30.5,29.0,29.91,North,350,8.0,9.0,94,0.00,,,0.01,0,HR-IXPWINDi_r2_v1.2.,2013-02-25 06:17:00,
2013-02-25 01:22:00,30.4,28.9,29.91,NNW,344,5.0,9.0,94,0.00,,,0.01,0,HR-IXPWINDi_r2_v1.2.,2013-02-25 06:22:00,
2013-02-25 01:27:00,30.5,29.0,29.91,NNW,342,3.0,8.0,94,0.00,,,0.01,0,HR-IXPWINDi_r2_v1.2.,2013-02-25 06:27:00,
2013-02-25 01:32:00,30.5,29.0,29.92,North,349,4.0,7.0,94,0.00,,,0.01,0,HR-IXPWINDi_r2_v1.2.,2013-02-25 06:32:00,
2013-02-25 01:38:00,30.5,29.0,29.92,NNW,330,4.0,8.0,94,0.00,,,0.01,0,HR-IXPWINDi_r2_v1.2.,2013-02-25 06:38:00,
2013-02-25 01:43:00,30.4,28.9,29.92,North,355,3.0,8.0,94,0.00,,,0.01,0,HR-IXPWINDi_r2_v1.2.,2013-02-25 06:43:00,
2013-02-25 01:48:00,30.4,28.9,29.92,NNW,342,4.0,7.0,94,0.00,,,0.01,0,HR-IXPWINDi_r2_v1.2.,2013-02-25 06:48:00,
2013-02-25 01:53:00,30.3,28.8,29.92,North,355,5.0,8.0,94,0.00,,,0.01,0,HR-IXPWINDi_r2_v1.2.,2013-02-25 06:53:00,
2013-02-25 01:58:00,30.3,28.8,29.92,North,5,4.0,8.0,94,0.00,,,0.01,0,HR-IXPWINDi_r2_v1.2.,2013-02-25 06:58:00,
2013-02-25 02:03:00,30.2,28.7,29.92,North,10,5.0,8.0,94,0.00,,,0.01,0,HR-IXPWINDi_r2_v1.2.,2013-02-25 07:03:00,
2013-02-25 02:08:00,30.2,28.7,29.92,NNE,23,5.0,10.0,94,0.00,,,0.01,0,HR-IXPWINDi_r2_v1.2.,2013-02-25 07:08:00,
2013-02-25 02:14:00,30.2,28.7,29.92,NNW,340,2.0,10.0,94,0.00,,,0.01,0,HR-IXPWINDi_r2_v1.2.,2013-02-25 07:14:00,
2013-02-25 02:19:00,30.1,28.6,29.93,North,355,2.0,7.0,94,0.00,,,0.01,0,HR-IXPWINDi_r2_v1.2.,2013-02-25 07:19:00,
2013-02-25 02:24:00,30.1,28.6,29.93,North,355,5.0,8.0,94,0.00,,,0.01,0,HR-IXPWINDi_r2_v1.2.,2013-02-25 07:24:00,
2013-02-25 02:29:00,30.1,28.6,29.93,North,360,1.0,8.0,94,0.00,,,0.01,0,HR-IXPWINDi_r2_v1.2.,2013-02-25 07:29:00,
2013-02-25 02:34:00,30.1,28.6,29.93,NNW,346,4.0,8.0,94,0.00,,,0.01,0,HR-IXPWINDi_r2_v1.2.,2013-02-25 07:34:00,
2013-02-25 02:39:00,30.1,28.6,29.93,North,355,5.0,8.0,94,0.00,,,0.01,0,HR-IXPWINDi_r2_v1.2.,2013-02-25 07:39:00,
2013-02-25 02:45:00,30.1,28.6,29.93,NW,326,11.0,11.0,94,0.00,,,0.01,0,HR-IXPWINDi_r2_v1.2.,2013-02-25 07:45:00,
2013-02-25 02:50:00,30.2,28.7,29.93,NW,324,6.0,11.0,94,0.00,,,0.01,0,HR-IXPWINDi_r2_v1.2.,2013-02-25 07:50:00,
2013-02-25 02:55:00,30.2,28.7,29.93,NNW,344,9.0,10.0,94,0.00,,,0.01,0,HR-IXPWINDi_r2_v1.2.,2013-02-25 07:55:00,
2013-02-25 03:00:00,30.2,28.7,29.93,NNW,327,4.0,11.0,94,0.00,,,0.01,0,HR-IXPWINDi_r2_v1.2.,2013-02-25 08:00:00,
2013-02-25 03:06:00,30.2,28.7,29.93,North,11,6.0,11.0,94,0.00,,,0.01,0,HR-IXPWINDi_r2_v1.2.,2013-02-25 08:06:00,
2013-02-25 03:11:00,30.3,28.8,29.93,NNW,337,3.0,11.0,94,0.00,,,0.01,0,HR-IXPWINDi_r2_v1.2.,2013-02-25 08:11:00,
2013-02-25 03:16:00,30.3,28.5,29.94,NNW,336,3.0,9.0,93,0.00,,,0.01,0,HR-IXPWINDi_r2_v1.2.,2013-02-25 08:16:00,
2013-02-25 03:21:00,30.3,28.5,29.94,NNW,330,7.0,9.0,93,0.00,,,0.01,0,HR-IXPWINDi_r2_v1.2.,2013-02-25 08:21:00,
2013-02-25 03:27:00,30.3,28.5,29.94,NNW,344,4.0,9.0,93,0.00,,,0.01,0,HR-IXPWINDi_r2_v1.2.,2013-02-25 08:27:00,
2013-02-25 03:32:00,30.3,28.5,29.94,NNE,27,3.0,9.0,93,0.00,,,0.01,0,HR-IXPWINDi_r2_v1.2.,2013-02-25 08:32:00,
2013-02-25 03:37:00,30.4,28.6,29.95,NNW,329,3.0,8.0,93,0.00,,,0.01,0,HR-IXPWINDi_r2_v1.2.,2013-02-25 08:37:00,
2013-02-25 03:42:00,30.4,28.6,29.95,WNW,297,5.0,10.0,93,0.00,,,0.01,0,HR-IXPWINDi_r2_v1.2.,2013-02-25 08:42:00,
2013-02-25 03:47:00,30.4,28.6,29.95,North,355,4.0,10.0,93,0.00,,,0.01,0,HR-IXPWINDi_r2_v1.2.,2013-02-25 08:47:00,
2013-02-25 03:52:00,30.4,28.6,29.95,NNW,332,6.0,9.0,93,0.00,,,0.01,0,HR-IXPWINDi_r2_v1.2.,2013-02-25 08:52:00,
2013-02-25 03:57:00,30.5,28.7,29.95,North,355,4.0,9.0,93,0.00,,,0.01,0,HR-IXPWINDi_r2_v1.2.,2013-02-25 08:57:00,
2013-02-25 04:03:00,30.5,28.7,29.95,NNW,343,4.0,9.0,93,0.00,,,0.01,0,HR-IXPWINDi_r2_v1.2.,2013-02-25 09:03:00,
2013-02-25 04:08:00,30.5,28.7,29.95,North,360,3.0,8.0,93,0.00,,,0.01,0,HR-IXPWINDi_r2_v1.2.,2013-02-25 09:08:00,
2013-02-25 04:13:00,30.5,28.7,29.96,North,9,5.0,8.0,93,0.00,,,0.01,0,HR-IXPWINDi_r2_v1.2.,2013-02-25 09:13:00,
2013-02-25 04:18:00,30.4,28.3,29.96,North,5,3.0,8.0,92,0.00,,,0.01,0,HR-IXPWINDi_r2_v1.2.,2013-02-25 09:18:00,
2013-02-25 04:23:00,30.3,28.2,29.96,NNW,328,5.0,9.0,92,0.00,,,0.01,0,HR-IXPWINDi_r2_v1.2.,2013-02-25 09:23:00,
2013-02-25 04:28:00,30.3,28.2,29.96,NNE,14,6.0,9.0,92,0.00,,,0.01,0,HR-IXPWINDi_r2_v1.2.,2013-02-25 09:28:00,
2013-02-25 04:34:00,30.2,28.1,29.96,NNE,19,5.0,8.0,92,0.00,,,0.01,0,HR-IXPWINDi_r2_v1.2.,2013-02-25 09:34:00,
2013-02-25 04:39:00,30.2,28.1,29.96,North,5,3.0,8.0,92,0.00,,,0.01,0,HR-IXPWINDi_r2_v1.2.,2013-02-25 09:39:00,
2013-02-25 04:44:00,30.1,28.0,29.97,NNW,344,4.0,9.0,92,0.00,,,0.01,0,HR-IXPWINDi_r2_v1.2.,2013-02-25 09:44:00,
2013-02-25 04:49:00,30.1,28.0,29.97,NNW,339,7.0,9.0,92,0.00,,,0.01,0,HR-IXPWINDi_r2_v1.2.,2013-02-25 09:49:00,
2013-02-25 04:55:00,30.2,28.1,29.98,NNW,332,2.0,7.0,92,0.00,,,0.01,0,HR-IXPWINDi_r2_v1.2.,2013-02-25 09:55:00,
2013-02-25 05:00:00,30.3,28.2,29.98,NNW,340,2.0,7.0,92,0.00,,,0.01,0,HR-IXPWINDi_r2_v1.2.,2013-02-25 10:00:00,
2013-02-25 05:05:00,30.3,28.2,29.98,North,355,1.0,6.0,92,0.00,,,0.01,0,HR-IXPWINDi_r2_v1.2.,2013-02-25 10:05:00,
2013-02-25 05:10:00,30.3,28.0,29.99,NNW,341,2.0,5.0,91,0.00,,,0.01,0,HR-IXPWINDi_r2_v1.2.,2013-02-25 10:10:00,
2013-02-25 05:15:00,30.3,28.0,29.99,NNW,339,2.0,6.0,91,0.00,,,0.01,0,HR-IXPWINDi_r2_v1.2.,2013-02-25 10:15:00,
2013-02-25 05:20:00,30.4,28.1,29.99,NNW,344,2.0,6.0,91,0.00,,,0.01,0,HR-IXPWINDi_r2_v1.2.,2013-02-25 10:20:00,
2013-02-25 05:26:00,30.5,28.2,29.99,NNW,348,4.0,6.0,91,0.00,,,0.01,0,HR-IXPWINDi_r2_v1.2.,2013-02-25 10:26:00,
2013-02-25 05:31:00,30.5,28.2,29.99,North,351,3.0,7.0,91,0.00,,,0.01,0,HR-IXPWINDi_r2_v1.2.,2013-02-25 10:31:00,
2013-02-25 05:36:00,30.4,28.1,29.99,North,360,4.0,7.0,91,0.00,,,0.01,0,HR-IXPWINDi_r2_v1.2.,2013-02-25 10:36:00,
2013-02-25 05:41:00,30.4,28.1,29.99,NNE,21,4.0,7.0,91,0.00,,,0.01,0,HR-IXPWINDi_r2_v1.2.,2013-02-25 10:41:00,
2013-02-25 05:47:00,30.5,28.2,29.99,North,5,3.0,6.0,91,0.00,,,0.01,0,HR-IXPWINDi_r2_v1.2.,2013-02-25 10:47:00,
2013-02-25 05:52:00,30.5,28.2,30.00,NNW,345,2.0,6.0,91,0.00,,,0.01,0,HR-IXPWINDi_r2_v1.2.,2013-02-25 10:52:00,
2013-02-25 05:57:00,30.5,28.2,30.00,NNW,335,2.0,5.0,91,0.00,,,0.01,0,HR-IXPWINDi_r2_v1.2.,2013-02-25 10:57:00,
2013-02-25 06:02:00,30.5,28.2,30.00,North,350,3.0,5.0,91,0.00,,,0.01,0,HR-IXPWINDi_r2_v1.2.,2013-02-25 11:02:00,
2013-02-25 06:07:00,30.6,28.3,30.00,NW,326,1.0,5.0,91,0.00,,,0.01,0,HR-IXPWINDi_r2_v1.2.,2013-02-25 11:07:00,
2013-02-25 06:12:00,30.6,28.3,30.00,NW,310,2.0,4.0,91,0.00,,,0.01,0,HR-IXPWINDi_r2_v1.2.,2013-02-25 11:12:00,
2013-02-25 06:18:00,30.6,28.3,30.01,NNW,333,3.0,4.0,91,0.00,,,0.01,0,HR-IXPWINDi_r2_v1.2.,2013-02-25 11:18:00,
2013-02-25 06:23:00,30.6,28.3,30.01,North,11,3.0,4.0,91,0.00,,,0.01,0,HR-IXPWINDi_r2_v1.2.,2013-02-25 11:23:00,
2013-02-25 06:28:00,30.6,28.3,30.01,NNE,19,3.0,6.0,91,0.00,,,0.01,0,HR-IXPWINDi_r2_v1.2.,2013-02-25 11:28:00,
2013-02-25 06:33:00,30.5,28.2,30.01,North,360,0.0,6.0,91,0.00,,,0.01,0,HR-IXPWINDi_r2_v1.2.,2013-02-25 11:33:00,
2013-02-25 06:38:00,30.5,28.2,30.01,NNE,30,3.0,5.0,91,0.00,,,0.01,0,HR-IXPWINDi_r2_v1.2.,2013-02-25 11:38:00,
2013-02-25 06:44:00,30.5,28.2,30.01,NNE,30,3.0,5.0,91,0.00,,,0.01,0,HR-IXPWINDi_r2_v1.2.,2013-02-25 11:44:00,
2013-02-25 06:49:00,-999.0,99.9,30.02,North,-999,-999.0,-999.0,-999,99.99,,,0.01,,HR-IXPWINDi_r2_v1.2.,2013-02-25 11:49:00,
2013-02-25 06:54:00,-999.0,99.9,30.02,North,-999,-999.0,-999.0,-999,99.99,,,0.01,,HR-IXPWINDi_r2_v1.2.,2013-02-25 11:54:00,
2013-02-25 06:59:00,-999.0,99.9,30.02,North,-999,-999.0,-999.0,-999,99.99,,,0.01,,HR-IXPWINDi_r2_v1.2.,2013-02-25 11:59:00,
2013-02-25 07:05:00,30.4,28.1,30.02,North,355,5.0,255.0,91,0.00,,,0.01,32,HR-IXPWINDi_r2_v1.2.,2013-02-25 12:05:00,
2013-02-25 07:10:00,30.5,28.2,30.02,North,5,5.0,255.0,91,0.00,,,0.01,37,HR-IXPWINDi_r2_v1.2.,2013-02-25 12:10:00,
2013-02-25 07:15:00,30.6,28.3,30.03,North,10,4.0,8.0,91,0.00,,,0.01,44,HR-IXPWINDi_r2_v1.2.,2013-02-25 12:15:00,
2013-02-25 07:20:00,30.6,28.3,30.03,NNE,20,4.0,8.0,91,0.00,,,0.01,49,HR-IXPWINDi_r2_v1.2.,2013-02-25 12:20:00,
2013-02-25 07:25:00,30.8,28.5,30.03,NNW,344,4.0,8.0,91,0.00,,,0.01,70,HR-IXPWINDi_r2_v1.2.,2013-02-25 12:25:00,
2013-02-25 07:31:00,30.9,28.3,30.03,North,11,5.0,8.0,90,0.00,,,0.01,98,HR-IXPWINDi_r2_v1.2.,2013-02-25 12:31:00,
2013-02-25 07:36:00,31.0,28.4,30.03,NNE,12,3.0,8.0,90,0.00,,,0.01,158,HR-IXPWINDi_r2_v1.2.,2013-02-25 12:36:00,
2013-02-25 07:41:00,31.1,28.5,30.04,NNE,24,4.0,8.0,90,0.00,,,0.02,214,HR-IXPWINDi_r2_v1.2.,2013-02-25 12:41:00,
2013-02-25 07:47:00,31.3,28.4,30.04,NNE,24,3.0,7.0,89,0.00,,,0.02,271,HR-IXPWINDi_r2_v1.2.,2013-02-25 12:47:00,
2013-02-25 07:53:00,31.4,28.5,30.04,NNE,26,5.0,8.0,89,0.00,,,0.02,297,HR-IXPWINDi_r2_v1.2.,2013-02-25 12:53:00,
2013-02-25 07:58:00,31.6,28.7,30.04,North,355,4.0,10.0,89,0.00,,,0.03,292,HR-IXPWINDi_r2_v1.2.,2013-02-25 12:58:00,
2013-02-25 08:03:00,31.9,28.7,30.04,NNW,338,4.0,10.0,88,0.00,,,0.03,315,HR-IXPWINDi_r2_v1.2.,2013-02-25 13:03:00,
2013-02-25 08:08:00,32.0,28.8,30.04,North,9,4.0,9.0,88,0.00,,,0.03,399,HR-IXPWINDi_r2_v1.2.,2013-02-25 13:08:00,
2013-02-25 08:13:00,32.2,28.7,30.04,NNE,15,4.0,10.0,87,0.00,,,0.03,390,HR-IXPWINDi_r2_v1.2.,2013-02-25 13:13:00,
2013-02-25 08:19:00,32.3,28.6,30.05,North,9,4.0,10.0,86,0.00,,,0.03,371,HR-IXPWINDi_r2_v1.2.,2013-02-25 13:19:00,
2013-02-25 08:24:00,32.6,28.9,30.05,NNE,17,5.0,9.0,86,0.00,,,0.04,329,HR-IXPWINDi_r2_v1.2.,2013-02-25 13:24:00,
2013-02-25 08:29:00,32.9,29.2,30.06,NNE,30,3.0,8.0,86,0.00,,,0.04,292,HR-IXPWINDi_r2_v1.2.,2013-02-25 13:29:00,
2013-02-25 08:34:00,33.0,29.0,30.06,NNW,339,5.0,8.0,85,0.00,,,0.04,297,HR-IXPWINDi_r2_v1.2.,2013-02-25 13:34:00,
2013-02-25 08:39:00,33.2,28.9,30.06,NNW,346,5.0,10.0,84,0.00,,,0.04,311,HR-IXPWINDi_r2_v1.2.,2013-02-25 13:39:00,
2013-02-25 08:44:00,33.5,29.2,30.06,North,9,7.0,10.0,84,0.00,,,0.05,323,HR-IXPWINDi_r2_v1.2.,2013-02-25 13:44:00,
2013-02-25 08:50:00,33.7,29.4,30.06,NNE,16,6.0,9.0,84,0.00,,,0.05,336,HR-IXPWINDi_r2_v1.2.,2013-02-25 13:50:00,
2013-02-25 08:55:00,33.9,29.3,30.06,NNE,19,4.0,9.0,83,0.00,,,0.05,345,HR-IXPWINDi_r2_v1.2.,2013-02-25 13:55:00,
2013-02-25 09:01:00,34.0,29.4,30.06,North,5,3.0,8.0,83,0.04,,,0.06,360,HR-IXPWINDi_r2_v1.2.,2013-02-25 14:01:00,
2013-02-25 09:06:00,34.3,29.4,30.07,NNW,344,9.0,9.0,82,0.04,,,0.06,371,HR-IXPWINDi_r2_v1.2.,2013-02-25 14:06:00,
2013-02-25 09:11:00,34.2,29.3,30.07,North,5,10.0,10.0,82,0.04,,,0.06,383,HR-IXPWINDi_r2_v1.2.,2013-02-25 14:11:00,
2013-02-25 09:17:00,34.4,29.5,30.06,North,11,7.0,10.0,82,0.00,,,0.06,396,HR-IXPWINDi_r2_v1.2.,2013-02-25 14:17:00,
2013-02-25 09:22:00,34.7,29.7,30.06,NW,324,7.0,10.0,82,0.00,,,0.07,408,HR-IXPWINDi_r2_v1.2.,2013-02-25 14:22:00,
2013-02-25 09:27:00,34.9,29.6,30.07,NNE,19,3.0,10.0,81,0.00,,,0.07,418,HR-IXPWINDi_r2_v1.2.,2013-02-25 14:27:00,
2013-02-25 09:32:00,35.1,29.8,30.07,NNE,17,4.0,9.0,81,0.00,,,0.07,429,HR-IXPWINDi_r2_v1.2.,2013-02-25 14:32:00,
2013-02-25 09:37:00,35.1,29.5,30.08,NNE,19,6.0,9.0,80,0.00,,,0.07,438,HR-IXPWINDi_r2_v1.2.,2013-02-25 14:37:00,
2013-02-25 09:42:00,35.4,30.1,30.08,North,5,4.0,10.0,81,0.00,,,0.07,452,HR-IXPWINDi_r2_v1.2.,2013-02-25 14:42:00,
2013-02-25 09:48:00,35.7,30.1,30.08,North,11,6.0,10.0,80,0.00,,,0.07,462,HR-IXPWINDi_r2_v1.2.,2013-02-25 14:48:00,
2013-02-25 09:53:00,35.7,30.1,30.08,North,355,7.0,11.0,80,0.00,,,0.08,475,HR-IXPWINDi_r2_v1.2.,2013-02-25 14:53:00,
2013-02-25 09:58:00,36.1,30.2,30.08,NNE,15,6.0,11.0,79,0.00,,,0.08,490,HR-IXPWINDi_r2_v1.2.,2013-02-25 14:58:00,
2013-02-25 10:03:00,36.1,30.2,30.08,NNW,342,6.0,12.0,79,0.00,,,0.08,510,HR-IXPWINDi_r2_v1.2.,2013-02-25 15:03:00,
2013-02-25 10:08:00,36.3,30.4,30.08,NNW,344,7.0,12.0,79,0.00,,,0.08,508,HR-IXPWINDi_r2_v1.2.,2013-02-25 15:08:00,
2013-02-25 10:14:00,36.4,30.5,30.09,NE,36,5.0,10.0,79,0.00,,,0.08,515,HR-IXPWINDi_r2_v1.2.,2013-02-25 15:14:00,
2013-02-25 10:19:00,36.7,30.5,30.09,NNW,338,7.0,10.0,78,0.00,,,0.08,533,HR-IXPWINDi_r2_v1.2.,2013-02-25 15:19:00,
2013-02-25 10:24:00,36.3,30.1,30.09,North,9,5.0,13.0,78,0.00,,,0.08,603,HR-IXPWINDi_r2_v1.2.,2013-02-25 15:24:00,
2013-02-25 10:29:00,36.9,30.7,30.09,North,360,4.0,13.0,78,0.00,,,0.08,555,HR-IXPWINDi_r2_v1.2.,2013-02-25 15:29:00,
2013-02-25 10:34:00,36.7,30.1,30.09,NNE,19,6.0,12.0,77,0.00,,,0.08,508,HR-IXPWINDi_r2_v1.2.,2013-02-25 15:34:00,
2013-02-25 10:39:00,36.8,30.6,30.09,NE,37,7.0,12.0,78,0.00,,,0.08,429,HR-IXPWINDi_r2_v1.2.,2013-02-25 15:39:00,
2013-02-25 10:45:00,36.9,30.3,30.09,NNE,17,5.0,12.0,77,0.00,,,0.08,520,HR-IXPWINDi_r2_v1.2.,2013-02-25 15:45:00,
2013-02-25 10:50:00,36.9,30.3,30.10,NW,323,3.0,11.0,77,0.00,,,0.08,582,HR-IXPWINDi_r2_v1.2.,2013-02-25 15:50:00,
2013-02-25 10:55:00,37.3,30.4,30.10,NNW,347,7.0,10.0,76,0.00,,,0.08,619,HR-IXPWINDi_r2_v1.2.,2013-02-25 15:55:00,
2013-02-25 11:00:00,37.2,30.3,30.10,NNE,16,6.0,11.0,76,0.00,,,0.08,642,HR-IXPWINDi_r2_v1.2.,2013-02-25 16:00:00,
2013-02-25 11:05:00,37.5,30.3,30.10,North,5,7.0,11.0,75,0.00,,,0.08,657,HR-IXPWINDi_r2_v1.2.,2013-02-25 16:05:00,
2013-02-25 11:11:00,37.9,30.7,30.10,North,360,4.0,10.0,75,0.00,,,0.08,649,HR-IXPWINDi_r2_v1.2.,2013-02-25 16:11:00,
2013-02-25 11:16:00,38.0,30.4,30.10,NNE,12,6.0,10.0,74,0.00,,,0.08,626,HR-IXPWINDi_r2_v1.2.,2013-02-25 16:16:00,
2013-02-25 11:21:00,38.5,30.9,30.09,NNE,21,8.0,9.0,74,0.00,,,0.08,636,HR-IXPWINDi_r2_v1.2.,2013-02-25 16:21:00,
2013-02-25 11:27:00,38.2,29.9,30.09,NNE,24,5.0,13.0,72,0.00,,,0.08,633,HR-IXPWINDi_r2_v1.2.,2013-02-25 16:27:00,
2013-02-25 11:32:00,38.2,29.9,30.09,NNE,22,5.0,13.0,72,0.00,,,0.08,635,HR-IXPWINDi_r2_v1.2.,2013-02-25 16:32:00,
2013-02-25 11:37:00,38.4,29.1,30.10,NNW,337,8.0,12.0,69,0.00,,,0.08,640,HR-IXPWINDi_r2_v1.2.,2013-02-25 16:37:00,
2013-02-25 11:42:00,38.7,29.7,30.10,NNE,20,6.0,10.0,70,0.00,,,0.08,636,HR-IXPWINDi_r2_v1.2.,2013-02-25 16:42:00,
2013-02-25 11:47:00,39.1,29.8,30.10,NNW,332,10.0,11.0,69,0.00,,,0.08,638,HR-IXPWINDi_r2_v1.2.,2013-02-25 16:47:00,
2013-02-25 11:52:00,38.6,28.6,30.10,North,5,8.0,11.0,67,0.00,,,0.08,650,HR-IXPWINDi_r2_v1.2.,2013-02-25 16:52:00,
2013-02-25 11:57:00,38.7,28.7,30.09,NNE,27,5.0,15.0,67,0.00,,,0.08,621,HR-IXPWINDi_r2_v1.2.,2013-02-25 16:57:00,
2013-02-25 12:02:00,39.1,29.4,30.09,NNE,24,5.0,15.0,68,0.00,,,0.00,635,HR-IXPWINDi_r2_v1.2.,2013-02-25 17:02:00,
2013-02-25 12:08:00,39.1,28.7,30.09,North,355,6.0,13.0,66,0.00,,,0.00,636,HR-IXPWINDi_r2_v1.2.,2013-02-25 17:08:00,
2013-02-25 12:13:00,39.5,28.7,30.09,NNE,32,9.0,13.0,65,0.00,,,0.00,636,HR-IXPWINDi_r2_v1.2.,2013-02-25 17:13:00,
2013-02-25 12:18:00,39.6,29.5,30.09,NNE,19,6.0,12.0,67,0.00,,,0.00,628,HR-IXPWINDi_r2_v1.2.,2013-02-25 17:18:00,
2013-02-25 12:23:00,39.2,28.4,30.10,North,5,5.0,13.0,65,0.00,,,0.00,636,HR-IXPWINDi_r2_v1.2.,2013-02-25 17:23:00,
2013-02-25 12:28:00,39.7,29.6,30.10,NE,51,8.0,13.0,67,0.00,,,0.00,613,HR-IXPWINDi_r2_v1.2.,2013-02-25 17:28:00,
2013-02-25 12:34:00,40.2,29.4,30.10,ENE,71,3.0,10.0,65,0.00,,,0.00,629,HR-IXPWINDi_r2_v1.2.,2013-02-25 17:34:00,
2013-02-25 12:39:00,40.5,29.3,30.10,NE,55,5.0,10.0,64,0.00,,,0.00,631,HR-IXPWINDi_r2_v1.2.,2013-02-25 17:39:00,
2013-02-25 12:44:00,40.6,29.0,30.10,North,355,2.0,10.0,63,0.00,,,0.00,626,HR-IXPWINDi_r2_v1.2.,2013-02-25 17:44:00,
2013-02-25 12:49:00,40.5,29.6,30.10,NNW,340,1.0,10.0,65,0.00,,,0.00,612,HR-IXPWINDi_r2_v1.2.,2013-02-25 17:49:00,
2013-02-25 12:54:00,40.4,29.2,30.10,NE,38,5.0,10.0,64,0.00,,,0.00,617,HR-IXPWINDi_r2_v1.2.,2013-02-25 17:54:00,
2013-02-25 12:59:00,40.7,29.1,30.09,NNE,14,4.0,10.0,63,0.00,,,0.00,612,HR-IXPWINDi_r2_v1.2.,2013-02-25 17:59:00,
2013-02-25 13:04:00,40.6,29.0,30.10,ENE,74,8.0,12.0,63,0.00,,,0.00,606,HR-IXPWINDi_r2_v1.2.,2013-02-25 18:04:00,
2013-02-25 13:09:00,40.6,28.6,30.10,NNE,25,10.0,12.0,62,0.00,,,0.00,601,HR-IXPWINDi_r2_v1.2.,2013-02-25 18:09:00,
2013-02-25 13:14:00,40.5,28.1,30.10,NNE,31,10.0,12.0,61,0.00,,,0.00,603,HR-IXPWINDi_r2_v1.2.,2013-02-25 18:14:00,
2013-02-25 13:19:00,40.5,28.5,30.11,NNE,33,5.0,12.0,62,0.00,,,0.00,596,HR-IXPWINDi_r2_v1.2.,2013-02-25 18:19:00,
2013-02-25 13:24:00,40.0,28.4,30.11,East,101,6.0,10.0,63,0.00,,,0.00,585,HR-IXPWINDi_r2_v1.2.,2013-02-25 18:24:00,
2013-02-25 13:30:00,40.6,30.8,30.11,ENE,63,3.0,9.0,68,0.00,,,0.00,578,HR-IXPWINDi_r2_v1.2.,2013-02-25 18:30:00,
2013-02-25 13:35:00,39.3,29.2,30.12,ESE,123,4.0,9.0,67,0.00,,,0.00,582,HR-IXPWINDi_r2_v1.2.,2013-02-25 18:35:00,
2013-02-25 13:40:00,39.0,29.7,30.12,SE,132,3.0,9.0,69,0.00,,,0.00,661,HR-IXPWINDi_r2_v1.2.,2013-02-25 18:40:00,
2013-02-25 13:45:00,40.4,31.7,30.12,South,177,0.0,8.0,71,0.00,,,0.00,302,HR-IXPWINDi_r2_v1.2.,2013-02-25 18:45:00,
2013-02-25 13:51:00,40.1,30.7,30.13,ESE,123,3.0,7.0,69,0.00,,,0.00,264,HR-IXPWINDi_r2_v1.2.,2013-02-25 18:51:00,
2013-02-25 13:56:00,38.8,29.8,30.12,SSE,152,1.0,7.0,70,0.00,,,0.00,167,HR-IXPWINDi_r2_v1.2.,2013-02-25 18:56:00,
2013-02-25 14:01:00,39.1,30.8,30.13,South,184,4.0,7.0,72,0.00,,,0.00,657,HR-IXPWINDi_r2_v1.2.,2013-02-25 19:01:00,
2013-02-25 14:06:00,39.9,31.6,30.12,SSE,166,3.0,6.0,72,0.00,,,0.00,638,HR-IXPWINDi_r2_v1.2.,2013-02-25 19:06:00,
2013-02-25 14:11:00,39.6,30.9,30.12,South,190,5.0,7.0,71,0.00,,,0.00,336,HR-IXPWINDi_r2_v1.2.,2013-02-25 19:11:00,
2013-02-25 14:17:00,39.5,31.2,30.12,SSE,153,5.0,7.0,72,0.00,,,0.00,172,HR-IXPWINDi_r2_v1.2.,2013-02-25 19:17:00,
2013-02-25 14:22:00,39.2,30.9,30.12,South,173,3.0,7.0,72,0.00,,,0.00,200,HR-IXPWINDi_r2_v1.2.,2013-02-25 19:22:00,
2013-02-25 14:27:00,39.6,31.3,30.13,SE,138,1.0,6.0,72,0.00,,,0.00,236,HR-IXPWINDi_r2_v1.2.,2013-02-25 19:27:00,
2013-02-25 14:32:00,39.9,30.9,30.13,SSW,192,3.0,6.0,70,0.00,,,0.00,167,HR-IXPWINDi_r2_v1.2.,2013-02-25 19:32:00,
2013-02-25 14:38:00,39.0,30.7,30.13,South,187,1.0,6.0,72,0.00,,,0.00,174,HR-IXPWINDi_r2_v1.2.,2013-02-25 19:38:00,
2013-02-25 14:43:00,38.7,31.1,30.13,South,189,5.0,9.0,74,0.00,,,0.00,183,HR-IXPWINDi_r2_v1.2.,2013-02-25 19:43:00,
2013-02-25 14:48:00,38.7,31.8,30.13,South,190,5.0,9.0,76,0.00,,,0.00,306,HR-IXPWINDi_r2_v1.2.,2013-02-25 19:48:00,
2013-02-25 14:53:00,38.6,31.0,30.14,South,186,5.0,8.0,74,0.00,,,0.00,146,HR-IXPWINDi_r2_v1.2.,2013-02-25 19:53:00,
2013-02-25 14:59:00,38.5,31.2,30.14,South,184,1.0,6.0,75,0.00,,,0.00,151,HR-IXPWINDi_r2_v1.2.,2013-02-25 19:59:00,
2013-02-25 15:04:00,38.8,31.5,30.14,South,182,0.0,4.0,75,0.00,,,0.00,153,HR-IXPWINDi_r2_v1.2.,2013-02-25 20:04:00,
2013-02-25 15:09:00,38.8,31.5,30.14,South,180,2.0,4.0,75,0.00,,,0.00,174,HR-IXPWINDi_r2_v1.2.,2013-02-25 20:09:00,
2013-02-25 15:14:00,38.8,31.5,30.14,South,191,4.0,5.0,75,0.00,,,0.00,167,HR-IXPWINDi_r2_v1.2.,2013-02-25 20:14:00,
2013-02-25 15:19:00,38.7,31.8,30.15,SSW,202,3.0,7.0,76,0.00,,,0.00,172,HR-IXPWINDi_r2_v1.2.,2013-02-25 20:19:00,
2013-02-25 15:25:00,39.0,31.7,30.15,SSW,208,2.0,7.0,75,0.00,,,0.00,188,HR-IXPWINDi_r2_v1.2.,2013-02-25 20:25:00,
2013-02-25 15:30:00,39.3,31.7,30.15,West,259,0.0,7.0,74,0.00,,,0.00,148,HR-IXPWINDi_r2_v1.2.,2013-02-25 20:30:00,
2013-02-25 15:35:00,39.8,30.8,30.15,North,5,2.0,6.0,70,0.00,,,0.00,264,HR-IXPWINDi_r2_v1.2.,2013-02-25 20:35:00,
2013-02-25 15:40:00,40.5,30.7,30.15,WNW,302,4.0,10.0,68,0.00,,,0.00,366,HR-IXPWINDi_r2_v1.2.,2013-02-25 20:40:00,
2013-02-25 15:45:00,40.7,29.8,30.14,NW,317,4.0,10.0,65,0.00,,,0.00,279,HR-IXPWINDi_r2_v1.2.,2013-02-25 20:45:00,
2013-02-25 15:51:00,41.5,29.8,30.14,NE,34,6.0,10.0,63,0.00,,,0.00,248,HR-IXPWINDi_r2_v1.2.,2013-02-25 20:51:00,
2013-02-25 15:56:00,41.3,29.2,30.14,NNW,346,6.0,8.0,62,0.00,,,0.00,167,HR-IXPWINDi_r2_v1.2.,2013-02-25 20:56:00,
2013-02-25 16:01:00,41.0,29.3,30.14,North,360,7.0,9.0,63,0.00,,,0.00,62,HR-IXPWINDi_r2_v1.2.,2013-02-25 21:01:00,
2013-02-25 16:06:00,41.0,29.7,30.14,NNW,344,4.0,9.0,64,0.00,,,0.00,209,HR-IXPWINDi_r2_v1.2.,2013-02-25 21:06:00,
2013-02-25 16:11:00,41.3,29.6,30.14,NNE,33,5.0,8.0,63,0.00,,,0.00,195,HR-IXPWINDi_r2_v1.2.,2013-02-25 21:11:00,
2013-02-25 16:16:00,41.3,29.6,30.14,North,5,6.0,9.0,63,0.00,,,0.00,98,HR-IXPWINDi_r2_v1.2.,2013-02-25 21:16:00,
2013-02-25 16:22:00,40.7,29.4,30.15,NNW,340,7.0,9.0,64,0.00,,,0.00,47,HR-IXPWINDi_r2_v1.2.,2013-02-25 21:22:00,
2013-02-25 16:27:00,40.1,29.3,30.15,NNE,16,5.0,9.0,65,0.00,,,0.00,51,HR-IXPWINDi_r2_v1.2.,2013-02-25 21:27:00,
2013-02-25 16:32:00,39.9,29.4,30.15,NNE,24,4.0,9.0,66,0.00,,,0.00,51,HR-IXPWINDi_r2_v1.2.,2013-02-25 21:32:00,
2013-02-25 16:37:00,39.8,29.3,30.15,NNE,13,4.0,7.0,66,0.00,,,0.00,44,HR-IXPWINDi_r2_v1.2.,2013-02-25 21:37:00,
2013-02-25 16:42:00,39.8,29.7,30.15,NNW,338,2.0,7.0,67,0.00,,,0.00,33,HR-IXPWINDi_r2_v1.2.,2013-02-25 21:42:00,
2013-02-25 16:48:00,39.8,29.7,30.16,NNW,331,3.0,6.0,67,0.00,,,0.00,28,HR-IXPWINDi_r2_v1.2.,2013-02-25 21:48:00,
2013-02-25 16:53:00,39.6,29.9,30.16,NNW,338,2.0,5.0,68,0.00,,,0.00,25,HR-IXPWINDi_r2_v1.2.,2013-02-25 21:53:00,
2013-02-25 16:58:00,39.5,29.8,30.16,NNW,334,0.0,5.0,68,0.00,,,0.00,16,HR-IXPWINDi_r2_v1.2.,2013-02-25 21:58:00,
2013-02-25 17:03:00,39.4,30.1,30.16,NNW,338,0.0,4.0,69,0.00,,,0.00,12,HR-IXPWINDi_r2_v1.2.,2013-02-25 22:03:00,
2013-02-25 17:08:00,39.5,30.1,30.16,NNW,338,0.0,3.0,69,0.00,,,0.00,7,HR-IXPWINDi_r2_v1.2.,2013-02-25 22:08:00,
2013-02-25 17:14:00,39.3,30.0,30.17,NNW,337,0.0,2.0,69,0.00,,,0.00,5,HR-IXPWINDi_r2_v1.2.,2013-02-25 22:14:00,
2013-02-25 17:19:00,39.5,30.5,30.17,NNW,338,0.0,2.0,70,0.00,,,0.00,0,HR-IXPWINDi_r2_v1.2.,2013-02-25 22:19:00,
2013-02-25 17:24:00,39.5,30.5,30.17,NNW,338,0.0,2.0,70,0.00,,,0.00,0,HR-IXPWINDi_r2_v1.2.,2013-02-25 22:24:00,
2013-02-25 17:29:00,39.3,30.0,30.18,NNW,338,0.0,1.0,69,0.00,,,0.00,0,HR-IXPWINDi_r2_v1.2.,2013-02-25 22:29:00,
2013-02-25 17:34:00,39.2,30.2,30.18,South,169,1.0,3.0,70,0.00,,,0.00,0,HR-IXPWINDi_r2_v1.2.,2013-02-25 22:34:00,
2013-02-25 17:39:00,38.8,30.9,30.18,SSE,150,0.0,4.0,73,0.00,,,0.00,0,HR-IXPWINDi_r2_v1.2.,2013-02-25 22:39:00,
2013-02-25 17:44:00,38.6,31.3,30.18,SE,137,0.0,4.0,75,0.00,,,0.00,0,HR-IXPWINDi_r2_v1.2.,2013-02-25 22:44:00,
2013-02-25 17:50:00,38.4,31.5,30.18,SSE,147,0.0,3.0,76,0.00,,,0.00,0,HR-IXPWINDi_r2_v1.2.,2013-02-25 22:50:00,
2013-02-25 17:55:00,38.1,31.5,30.18,South,188,0.0,6.0,77,0.00,,,0.00,0,HR-IXPWINDi_r2_v1.2.,2013-02-25 22:55:00,
2013-02-25 18:00:00,37.9,31.3,30.18,SSE,147,4.0,6.0,77,0.00,,,0.00,0,HR-IXPWINDi_r2_v1.2.,2013-02-25 23:00:00,
2013-02-25 18:05:00,37.8,31.5,30.18,SE,142,3.0,6.0,78,0.00,,,0.00,0,HR-IXPWINDi_r2_v1.2.,2013-02-25 23:05:00,
2013-02-25 18:10:00,37.7,31.4,30.18,SSE,150,2.0,6.0,78,0.00,,,0.00,0,HR-IXPWINDi_r2_v1.2.,2013-02-25 23:10:00,
2013-02-25 18:16:00,37.7,31.4,30.18,SSE,152,2.0,5.0,78,0.00,,,0.00,0,HR-IXPWINDi_r2_v1.2.,2013-02-25 23:16:00,
2013-02-25 18:21:00,37.7,31.4,30.18,SE,130,0.0,4.0,78,0.00,,,0.00,0,HR-IXPWINDi_r2_v1.2.,2013-02-25 23:21:00,
2013-02-25 18:26:00,37.9,31.6,30.18,SE,127,2.0,3.0,78,0.00,,,0.00,0,HR-IXPWINDi_r2_v1.2.,2013-02-25 23:26:00,
2013-02-25 18:31:00,37.7,31.4,30.18,SE,127,1.0,3.0,78,0.00,,,0.00,0,HR-IXPWINDi_r2_v1.2.,2013-02-25 23:31:00,
2013-02-25 18:36:00,37.7,31.7,30.18,SE,130,0.0,3.0,79,0.00,,,0.00,0,HR-IXPWINDi_r2_v1.2.,2013-02-25 23:36:00,
2013-02-25 18:41:00,37.7,31.7,30.19,SSE,165,2.0,3.0,79,0.00,,,0.00,0,HR-IXPWINDi_r2_v1.2.,2013-02-25 23:41:00,
2013-02-25 18:47:00,37.7,32.1,30.19,SE,139,3.0,5.0,80,0.00,,,0.00,0,HR-IXPWINDi_r2_v1.2.,2013-02-25 23:47:00,
2013-02-25 18:52:00,37.7,32.1,30.19,South,169,2.0,5.0,80,0.00,,,0.00,0,HR-IXPWINDi_r2_v1.2.,2013-02-25 23:52:00,
2013-02-25 18:57:00,37.6,32.0,30.19,SSE,159,2.0,4.0,80,0.00,,,0.00,0,HR-IXPWINDi_r2_v1.2.,2013-02-25 23:57:00,
2013-02-25 19:02:00,37.5,31.9,30.19,SSE,161,1.0,3.0,80,0.00,,,0.00,0,HR-IXPWINDi_r2_v1.2.,2013-02-26 00:02:00,
2013-02-25 19:07:00,37.5,31.9,30.19,South,180,2.0,3.0,80,0.00,,,0.00,0,HR-IXPWINDi_r2_v1.2.,2013-02-26 00:07:00,
2013-02-25 19:12:00,37.6,32.0,30.20,South,175,3.0,3.0,80,0.00,,,0.00,0,HR-IXPWINDi_r2_v1.2.,2013-02-26 00:12:00,
2013-02-25 19:17:00,37.6,32.0,30.20,South,186,4.0,4.0,80,0.00,,,0.00,0,HR-IXPWINDi_r2_v1.2.,2013-02-26 00:17:00,
2013-02-25 19:23:00,37.6,32.0,30.20,South,188,2.0,5.0,80,0.00,,,0.00,0,HR-IXPWINDi_r2_v1.2.,2013-02-26 00:23:00,
2013-02-25 19:28:00,37.5,32.2,30.21,South,184,3.0,5.0,81,0.00,,,0.00,0,HR-IXPWINDi_r2_v1.2.,2013-02-26 00:28:00,
2013-02-25 19:33:00,37.5,32.2,30.21,South,179,3.0,5.0,81,0.00,,,0.00,0,HR-IXPWINDi_r2_v1.2.,2013-02-26 00:33:00,
2013-02-25 19:38:00,37.5,32.2,30.21,South,176,2.0,4.0,81,0.00,,,0.00,0,HR-IXPWINDi_r2_v1.2.,2013-02-26 00:38:00,
2013-02-25 19:43:00,37.5,32.2,30.21,South,177,3.0,5.0,81,0.00,,,0.00,0,HR-IXPWINDi_r2_v1.2.,2013-02-26 00:43:00,
2013-02-25 19:49:00,37.4,32.1,30.21,SSW,194,4.0,6.0,81,0.00,,,0.00,0,HR-IXPWINDi_r2_v1.2.,2013-02-26 00:49:00,
2013-02-25 19:54:00,37.3,32.0,30.21,South,184,5.0,7.0,81,0.00,,,0.00,0,HR-IXPWINDi_r2_v1.2.,2013-02-26 00:54:00,
2013-02-25 19:59:00,37.3,32.0,30.22,South,190,6.0,7.0,81,0.00,,,0.00,0,HR-IXPWINDi_r2_v1.2.,2013-02-26 00:59:00,
2013-02-25 20:04:00,37.3,32.0,30.22,SSW,202,3.0,7.0,81,0.00,,,0.00,0,HR-IXPWINDi_r2_v1.2.,2013-02-26 01:04:00,
2013-02-25 20:09:00,37.3,32.0,30.22,SSW,192,5.0,7.0,81,0.00,,,0.00,0,HR-IXPWINDi_r2_v1.2.,2013-02-26 01:09:00,
2013-02-25 20:15:00,37.4,32.1,30.22,South,189,2.0,6.0,81,0.00,,,0.00,0,HR-IXPWINDi_r2_v1.2.,2013-02-26 01:15:00,
2013-02-25 20:20:00,37.3,32.0,30.22,South,175,2.0,5.0,81,0.00,,,0.00,0,HR-IXPWINDi_r2_v1.2.,2013-02-26 01:20:00,
2013-02-25 20:25:00,37.3,32.3,30.22,SSW,192,4.0,5.0,82,0.00,,,0.00,0,HR-IXPWINDi_r2_v1.2.,2013-02-26 01:25:00,
2013-02-25 20:30:00,37.3,32.0,30.22,SSW,194,5.0,5.0,81,0.00,,,0.00,0,HR-IXPWINDi_r2_v1.2.,2013-02-26 01:30:00,
2013-02-25 20:36:00,37.2,31.9,30.22,SSW,192,5.0,7.0,81,0.00,,,0.00,0,HR-IXPWINDi_r2_v1.2.,2013-02-26 01:36:00,
2013-02-25 20:41:00,37.2,31.9,30.22,South,175,1.0,7.0,81,0.00,,,0.00,0,HR-IXPWINDi_r2_v1.2.,2013-02-26 01:41:00,
2013-02-25 20:46:00,37.2,32.2,30.22,SSE,163,1.0,5.0,82,0.00,,,0.00,0,HR-IXPWINDi_r2_v1.2.,2013-02-26 01:46:00,
2013-02-25 20:51:00,37.1,32.1,30.22,SSW,203,3.0,5.0,82,0.00,,,0.00,0,HR-IXPWINDi_r2_v1.2.,2013-02-26 01:51:00,
2013-02-25 20:57:00,37.0,31.7,30.22,South,184,4.0,6.0,81,0.00,,,0.00,0,HR-IXPWINDi_r2_v1.2.,2013-02-26 01:57:00,
2013-02-25 21:02:00,37.0,32.0,30.22,South,188,3.0,8.0,82,0.00,,,0.00,0,HR-IXPWINDi_r2_v1.2.,2013-02-26 02:02:00,
2013-02-25 21:07:00,37.0,32.3,30.22,SSW,200,4.0,8.0,83,0.00,,,0.00,0,HR-IXPWINDi_r2_v1.2.,2013-02-26 02:07:00,
2013-02-25 21:12:00,36.9,32.2,30.22,SSW,192,4.0,5.0,83,0.00,,,0.00,0,HR-IXPWINDi_r2_v1.2.,2013-02-26 02:12:00,
2013-02-25 21:17:00,36.8,32.1,30.22,South,179,5.0,6.0,83,0.00,,,0.00,0,HR-IXPWINDi_r2_v1.2.,2013-02-26 02:17:00,
2013-02-25 21:23:00,36.6,32.2,30.22,South,191,4.0,6.0,84,0.00,,,0.00,0,HR-IXPWINDi_r2_v1.2.,2013-02-26 02:23:00,
2013-02-25 21:28:00,36.5,32.4,30.22,South,188,4.0,6.0,85,0.00,,,0.00,0,HR-IXPWINDi_r2_v1.2.,2013-02-26 02:28:00,
2013-02-25 21:33:00,36.3,32.2,30.22,South,188,4.0,6.0,85,0.00,,,0.00,0,HR-IXPWINDi_r2_v1.2.,2013-02-26 02:33:00,
2013-02-25 21:38:00,36.2,32.1,30.22,SSW,192,4.0,5.0,85,0.00,,,0.00,0,HR-IXPWINDi_r2_v1.2.,2013-02-26 02:38:00,
2013-02-25 21:43:00,36.1,32.0,30.22,South,190,4.0,5.0,85,0.00,,,0.00,0,HR-IXPWINDi_r2_v1.2.,2013-02-26 02:43:00,
2013-02-25 21:49:00,35.9,32.1,30.22,SSE,162,1.0,6.0,86,0.00,,,0.00,0,HR-IXPWINDi_r2_v1.2.,2013-02-26 02:49:00,
2013-02-25 21:54:00,35.9,31.8,30.22,South,186,4.0,6.0,85,0.00,,,0.00,0,HR-IXPWINDi_r2_v1.2.,2013-02-26 02:54:00,
2013-02-25 21:59:00,35.7,31.9,30.22,South,186,4.0,5.0,86,0.00,,,0.00,0,HR-IXPWINDi_r2_v1.2.,2013-02-26 02:59:00,
2013-02-25 22:05:00,35.7,31.9,30.22,South,185,4.0,5.0,86,0.00,,,0.00,0,HR-IXPWINDi_r2_v1.2.,2013-02-26 03:05:00,
2013-02-25 22:10:00,35.6,31.8,30.22,SSW,192,3.0,5.0,86,0.00,,,0.00,0,HR-IXPWINDi_r2_v1.2.,2013-02-26 03:10:00,
2013-02-25 22:15:00,35.6,31.8,30.22,South,186,3.0,5.0,86,0.00,,,0.00,0,HR-IXPWINDi_r2_v1.2.,2013-02-26 03:15:00,
2013-02-25 22:20:00,35.7,31.9,30.22,SSW,192,2.0,4.0,86,0.00,,,0.00,0,HR-IXPWINDi_r2_v1.2.,2013-02-26 03:20:00,
2013-02-25 22:25:00,35.6,31.8,30.22,SSW,192,0.0,4.0,86,0.00,,,0.00,0,HR-IXPWINDi_r2_v1.2.,2013-02-26 03:25:00,
2013-02-25 22:30:00,35.5,31.7,30.22,South,190,0.0,3.0,86,0.00,,,0.00,0,HR-IXPWINDi_r2_v1.2.,2013-02-26 03:30:00,
2013-02-25 22:36:00,35.7,31.9,30.23,South,190,0.0,2.0,86,0.00,,,0.00,0,HR-IXPWINDi_r2_v1.2.,2013-02-26 03:36:00,
2013-02-25 22:41:00,35.5,31.7,30.22,South,190,0.0,2.0,86,0.00,,,0.00,0,HR-IXPWINDi_r2_v1.2.,2013-02-26 03:41:00,
2013-02-25 22:46:00,35.2,31.4,30.22,South,187,0.0,2.0,86,0.00,,,0.00,0,HR-IXPWINDi_r2_v1.2.,2013-02-26 03:46:00,
2013-02-25 22:51:00,34.2,30.4,30.22,South,187,0.0,1.0,86,0.00,,,0.00,0,HR-IXPWINDi_r2_v1.2.,2013-02-26 03:51:00,
2013-02-25 22:56:00,34.4,30.9,30.22,South,186,1.0,1.0,87,0.00,,,0.00,0,HR-IXPWINDi_r2_v1.2.,2013-02-26 03:56:00,
2013-02-25 23:01:00,34.9,31.4,30.22,South,182,3.0,4.0,87,0.00,,,0.00,0,HR-IXPWINDi_r2_v1.2.,2013-02-26 04:01:00,
2013-02-25 23:07:00,35.5,32.0,30.22,South,184,2.0,5.0,87,0.00,,,0.00,0,HR-IXPWINDi_r2_v1.2.,2013-02-26 04:07:00,
2013-02-25 23:12:00,35.7,32.2,30.23,South,188,3.0,5.0,87,0.00,,,0.00,0,HR-IXPWINDi_r2_v1.2.,2013-02-26 04:12:00,
2013-02-25 23:17:00,35.8,32.0,30.23,SSE,165,2.0,7.0,86,0.00,,,0.00,0,HR-IXPWINDi_r2_v1.2.,2013-02-26 04:17:00,
2013-02-25 23:22:00,36.0,32.2,30.23,South,186,4.0,7.0,86,0.00,,,0.00,0,HR-IXPWINDi_r2_v1.2.,2013-02-26 04:22:00,
2013-02-25 23:27:00,36.1,32.3,30.23,SSE,163,4.0,6.0,86,0.00,,,0.00,0,HR-IXPWINDi_r2_v1.2.,2013-02-26 04:27:00,
2013-02-25 23:32:00,36.1,32.3,30.23,SSE,159,4.0,8.0,86,0.00,,,0.00,0,HR-IXPWINDi_r2_v1.2.,2013-02-26 04:32:00,
2013-02-25 23:37:00,36.1,32.3,30.23,South,185,7.0,8.0,86,0.00,,,0.00,0,HR-IXPWINDi_r2_v1.2.,2013-02-26 04:37:00,
2013-02-25 23:43:00,36.2,32.4,30.24,South,175,4.0,8.0,86,0.00,,,0.00,0,HR-IXPWINDi_r2_v1.2.,2013-02-26 04:43:00,
2013-02-25 23:48:00,36.2,32.4,30.24,SSW,195,7.0,9.0,86,0.00,,,0.00,0,HR-IXPWINDi_r2_v1.2.,2013-02-26 04:48:00,
2013-02-25 23:53:00,36.2,32.4,30.25,South,187,9.0,10.0,86,0.00,,,0.00,0,HR-IXPWINDi_r2_v1.2.,2013-02-26 04:53:00,
2013-02-25 23:59:00,36.2,32.1,30.24,South,191,8.0,11.0,85,0.00,,,0.00,0,HR-IXPWINDi_r2_v1.2.,2013-02-26 04:59:00,